Weather History for McCall, ID

Change the Weather History Date:

Friday, July 12, 2013

  Actual Average Record
Temperature  
Mean Temperature 62 °F 60 °F  
Max Temperature 80 °F 78 °F 99 °F (2002)
Min Temperature 44 °F 43 °F 32 °F (1974)
Degree Days  
Heating Degree Days 3 5  
Month to date heating degree days 6 77  
Since 1 June heating degree days 269 444  
Since 1 July heating degree days 6 77  
Cooling Degree Days 0 0  
Month to date cooling degree days 40 0  
Year to date cooling degree days 62 1  
Since 1 June cooling degree days 62 1  
Growing Degree Days 12 (Base 50)    
Moisture  
Dew Point 42 °F    
Average Humidity 54    
Maximum Humidity 89    
Minimum Humidity 19    
Precipitation  
Precipitation 0.00 in 0.03 in 0.41 in (1976)
Month to date precipitation T 0.40  
Year to date precipitation 11.25 12.04  
Sea Level Pressure  
Sea Level Pressure 29.87 in    
Wind  
Wind Speed 7 mph (SSW)    
Max Wind Speed 23 mph    
Max Gust Speed 30 mph    
Visibility 10 miles    
Events      
T = Trace of Precipitation, MM = Missing Value Source: NWS Daily Summary

Daily Weather History Graph

Daily Weather History Graph

Search for Another Location

Airport:

Trip Planner

Search our weather history database for the weather conditions in past years. The results will help you decide how hot, cold, wet, or windy it might be!

Date:

Astronomy

Jul. 12, 2013 Rise Set
Actual Time 6:10 AM MDT 9:29 PM MDT
Civil Twilight 5:33 AM MDT 10:05 PM MDT
Nautical Twilight 4:46 AM MDT 10:52 PM MDT
Astronomical Twilight 3:47 AM MDT 11:51 PM MDT
Moon 10:44 AM MDT (7/12) 11:27 PM MDT (7/12)
Length of Visible Light 16h 31m
Length of Day
15h 19m
Waxing Crescent, 18% of the Moon is Illuminated
Jul 12
Waxing Crescent
Jul 15
First Quarter
Jul 22
Full
Jul 29
Last Quarter
Aug 6
New

Hourly Weather History & Observations

Time (MDT) Temp. Dew Point Humidity Pressure Visibility Wind Dir Wind Speed Gust Speed Precip Events Conditions
12:51 AM 52.0 °F 45.0 °F 77% 29.89 in 10.0 mi Calm Calm - N/A   Clear
1:51 AM 52.0 °F 46.0 °F 80% 29.87 in 10.0 mi Calm Calm - N/A   Clear
2:51 AM 48.0 °F 44.1 °F 86% 29.89 in 10.0 mi Calm Calm - N/A   Clear
3:51 AM 46.0 °F 42.1 °F 86% 29.89 in 10.0 mi Calm Calm - N/A   Clear
4:51 AM 45.0 °F 41.0 °F 86% 29.89 in 10.0 mi Calm Calm - N/A   Clear
5:51 AM 45.0 °F 41.0 °F 86% 29.92 in 10.0 mi Calm Calm - N/A   Clear
6:51 AM 46.0 °F 42.1 °F 86% 29.93 in 10.0 mi Calm Calm - N/A   Clear
7:51 AM 50.0 °F 45.0 °F 83% 29.93 in 10.0 mi Calm Calm - N/A   Clear
8:51 AM 55.9 °F 48.0 °F 75% 29.91 in 10.0 mi Calm Calm - N/A   Clear
9:51 AM 62.1 °F 46.9 °F 58% 29.90 in 10.0 mi Calm Calm - N/A   Clear
10:51 AM 66.9 °F 46.9 °F 49% 29.89 in 10.0 mi SSE 4.6 mph - N/A   Clear
11:51 AM 71.1 °F 48.9 °F 45% 29.88 in 10.0 mi South 8.1 mph - N/A   Clear
12:51 PM 75.9 °F 43.0 °F 31% 29.87 in 10.0 mi South 13.8 mph 20.7 mph N/A   Partly Cloudy
1:51 PM 77.0 °F 43.0 °F 30% 29.85 in 10.0 mi South 17.3 mph 24.2 mph N/A   Partly Cloudy
2:51 PM 75.9 °F 41.0 °F 29% 29.86 in 10.0 mi South 21.9 mph 26.5 mph N/A   Mostly Cloudy
3:51 PM 77.0 °F 39.0 °F 25% 29.86 in 10.0 mi South 16.1 mph 20.7 mph N/A   Partly Cloudy
4:51 PM 79.0 °F 32.0 °F 18% 29.85 in 10.0 mi South 21.9 mph 29.9 mph N/A   Partly Cloudy
5:51 PM 78.1 °F 33.1 °F 19% 29.83 in 10.0 mi South 15.0 mph 25.3 mph N/A   Mostly Cloudy
6:51 PM 77.0 °F 35.1 °F 22% 29.81 in 10.0 mi South 11.5 mph 20.7 mph N/A   Clear
7:51 PM 77.0 °F 37.0 °F 24% 29.79 in 10.0 mi South 12.7 mph - N/A   Clear
8:51 PM 71.1 °F 37.9 °F 30% 29.78 in 10.0 mi West 8.1 mph - N/A   Clear
9:51 PM 63.0 °F 39.9 °F 43% 29.82 in 10.0 mi WNW 6.9 mph - N/A   Clear
10:51 PM 61.0 °F 39.0 °F 44% 29.85 in 10.0 mi NNW 3.5 mph - N/A   Clear
11:51 PM 57.9 °F 39.0 °F 49% 29.86 in 10.0 mi Calm Calm - N/A   Clear